SCP
0 0 0 0 0 0 0 0 0 0 0 0 0 0 0 0 0 0 0 0 0 0 0 0 0 0 0 0 0 0 0 0
0 0 0 0 0 0 0 0 0 0 0 0 0 0 0 0 0 0 0 0 0 0 0 0 0 0 0 0 0 0 0 0
0 0 0 0 0 0 0 0 0 0 0 0 0 0 0 0 0 0 0 0 0 0 0 0 0 0 0 0 0 0 0 0
0 0 0 0 0 0 0 0 0 0 0 0 0 0 0 0 0 0 0 0 0 0 0 0 0 0 0 0 0 0 0 0
0 0 0 0 0 0 0 0 0 0 0 0 0 0 0 0 0 0 0 0 0 0 0 0 0 0 0 0 0 0 0 0
0 0 0 0 0 0 0 0 0 0 0 0 0 0 0 0 0 0 0 0 0 0 0 0 0 0 0 0 0 0 0 0
0 0 0 0 0 0 0 0 0 0 0 0 0 0 0 0 0 0 0 0 0 0 0 0 0 0 0 0 0 0 0 0
0 0 0 0 0 0 0 0 0 0 0 0 0 0 0 0 0 0 0 0 0 0 0 0 0 0 0 0 0 0 0 0
0 0 0 0 0 0 0 0 0 0 0 0 0 0 0 0 0 0 0 0 0 0 0 0 0 0 0 0 0 0 0 0
0 0 0 0 0 0 0 0 0 0 0 0 0 0 0 0 0 0 0 0 0 0 0 0 0 0 0 0 0 0 0 0
-0 -0 0 0 0 0 0 0 0 0 0 0 0 0 0 0 0 0 0 0 0 0 0 0 0 0 0 0 0 0 0 0
0 -0 -0 -0 0 0 0 0 0 0 0 0 0 0 0 0 0 0 0 0 0 0 0 0 0 0 0 0 0 0 0 0
-0 -0 -0 -0 -0 -0 0 0 0 0 0 0 0 0 0 0 0 0 0 0 0 0 0 0 0 0 0 0 0 0 0 0
-0 -0 -0 -0 -0 -0 0 0 0 0 0 0 0 0 0 0 0 0 0 0 0 0 0 0 0 0 0 0 0 0 0 0
-0 -0 -0 -0 -0 -0 -0 -0 0 0 0 0 0 0 0 0 0 0 0 0 0 0 0 0 0 0 0 0 0 0 0 0
-0 -0 -0 -0 -0 -0 -0 -0 0 0 0 0 0 0 0 0 0 0 0 0 0 0 0 0 0 0 0 0 0 0 0 0
-0 -0 -0 -0 -0 -0 -0 0 0 0 0 0 0 0 0 0 0 0 0 0 0 0 0 0 0 0 0 0 0 0 0 0
-0 -0 -0 -0 -0 -0 -0 0 0 0 0 0 0 0 0 0 0 0 0 0 0 0 0 0 0 0 0 0 0 0 0 0
-0 -0 -0 -0 -0 -0 -0 0 0 0 0 0 0 0 0 0 0 0 0 0 0 0 0 0 0 0 0 0 0 0 0 0
0 0 0 0 0 0 0 0 0 0 0 0 0 0 0 0 0 0 0 0 0 0 0 0 0 0 0 0 0 0 0 0
Wind_Speed_500mb
33 21 19 26 28 38 53 51 54 55 61 62 68 71 78 85 84 85 84 83 83 79 85 94 97 95 93 93 89 86 83 80
33 27 17 16 12 16 33 39 45 52 54 57 58 61 68 73 83 82 81 78 78 69 66 71 81 87 93 95 89 88 87 85
38 32 32 24 11 4 12 23 32 45 53 57 57 58 61 67 71 75 76 75 75 71 64 58 67 74 77 83 92 92 93 92
34 38 50 37 26 17 5 9 18 25 39 50 53 56 54 58 60 68 76 76 73 69 69 70 74 77 76 72 80 86 90 94
44 53 45 34 33 32 24 13 6 7 17 28 51 51 51 50 52 56 64 72 72 71 68 70 67 74 82 82 83 83 89 96
50 48 35 35 40 34 28 21 15 7 2 10 24 50 48 51 49 51 52 55 60 66 68 68 70 71 75 78 79 81 85 90
48 43 44 45 36 29 27 25 21 18 12 5 7 18 32 43 46 46 47 50 53 56 64 69 70 70 70 72 78 83 87 88
43 41 40 37 31 28 25 24 25 24 21 15 7 4 11 20 29 38 43 50 52 55 58 63 67 67 67 69 72 80 86 89
39 37 37 34 33 29 27 25 24 24 23 21 18 12 3 9 16 23 30 37 43 49 53 57 60 59 60 63 65 68 79 86
36 36 34 36 35 31 30 28 25 26 23 22 20 18 14 10 2 10 18 26 33 39 43 47 50 51 54 56 58 62 68 76
40 38 37 37 34 32 33 30 32 30 27 21 16 14 13 13 10 7 2 7 14 20 28 33 37 40 44 47 51 58 62 67
38 42 41 37 35 35 33 35 33 28 25 20 16 13 9 8 7 6 5 3 3 7 13 16 21 28 37 37 41 52 60 65
40 39 38 37 36 35 35 33 29 26 24 22 19 16 11 7 6 5 5 4 4 7 11 15 19 28 32 32 35 42 52 57
37 37 38 39 39 37 36 31 29 26 24 21 19 17 14 11 7 5 6 9 11 14 16 22 28 29 28 30 34 38 42 43
37 39 38 36 36 35 32 29 27 24 22 21 18 15 14 12 8 5 5 7 10 14 17 23 31 38 36 31 31 35 37 37
41 44 45 42 36 33 30 29 25 23 20 19 18 17 14 10 9 6 5 5 8 13 16 20 25 32 40 42 38 34 33 35
40 45 47 44 38 37 34 30 27 24 21 17 15 14 12 11 8 6 4 5 7 9 11 14 18 24 30 36 43 38 32 32
41 45 49 44 35 34 34 31 26 26 24 21 18 14 11 9 10 8 4 3 3 8 8 11 13 17 21 28 37 34 38 37
45 47 45 39 34 32 32 32 29 24 25 26 22 19 13 9 8 7 7 5 5 7 9 11 17 21 22 26 39 44 36 36
48 48 45 38 32 31 30 31 28 26 22 26 27 25 21 16 14 11 10 9 10 9 7 14 22 22 22 28 30 29 30 32
Wind_Direction_500mb
27 31 100 130 157 180 195 201 206 212 221 223 232 234 230 223 227 233 235 237 236 232 231 232 236 237 233 234 236 237 236 236
37 36 52 102 138 182 191 201 209 216 219 222 224 231 229 228 227 232 236 241 239 237 235 236 236 238 237 236 236 238 236 235
46 51 62 49 30 169 217 226 227 227 229 225 225 226 231 231 228 230 232 236 242 239 237 235 236 234 234 237 236 237 237 236
39 55 56 51 41 41 346 265 248 235 231 229 222 226 229 233 231 230 232 236 239 238 236 234 233 232 231 236 238 238 239 238
39 51 57 54 55 51 42 23 340 269 238 226 215 220 220 221 225 230 232 234 237 239 237 234 236 236 237 236 238 237 237 236
42 46 52 58 59 54 51 47 46 48 172 207 220 219 224 224 224 223 227 232 236 237 237 237 237 237 240 239 238 237 237 236
42 41 41 47 51 55 51 51 54 57 65 87 200 212 220 228 228 228 226 225 228 232 234 236 238 240 241 242 241 239 237 235
37 39 45 45 45 48 52 49 51 53 58 63 79 176 212 220 227 230 230 230 230 231 232 235 238 240 241 242 242 241 238 234
36 42 47 48 46 45 48 52 51 49 48 50 55 56 109 205 218 227 232 233 233 234 236 238 240 241 242 242 243 242 240 236
40 43 46 47 43 43 48 47 45 47 44 41 40 40 48 56 49 229 231 232 234 236 237 238 239 237 238 238 238 237 236 233
42 45 46 43 42 41 42 41 42 36 32 27 23 21 21 30 34 35 10 244 240 238 236 235 234 232 231 232 230 229 227 221
46 44 42 40 36 35 34 36 30 25 23 20 17 11 2 357 352 7 15 359 268 233 223 222 225 218 217 225 224 225 217 209
45 42 37 33 31 32 33 29 22 20 15 12 13 9 4 349 320 290 265 240 227 210 208 197 189 199 208 216 221 219 212 206
36 33 28 25 23 20 19 14 16 13 8 12 10 5 1 350 329 283 249 235 227 215 201 191 186 192 195 198 201 203 204 208
24 20 16 11 4 2 3 3 358 357 1 3 3 3 359 354 340 315 254 232 231 230 225 213 203 201 202 208 205 205 204 203
14 7 0 355 350 339 336 338 347 346 345 351 353 351 351 346 339 336 317 262 241 235 230 230 223 213 211 209 213 215 205 199
2 356 351 347 345 333 329 322 319 328 329 328 333 338 341 337 323 321 303 269 251 244 231 229 220 210 207 208 209 212 212 198
351 348 346 345 343 336 334 330 316 303 309 310 306 314 316 323 335 319 312 231 229 223 218 214 196 184 185 195 194 189 198 197
344 344 342 343 340 339 336 334 327 310 290 291 291 286 287 301 293 288 303 290 201 188 184 172 167 165 171 154 167 185 200 208
339 342 337 336 332 329 326 326 324 320 301 277 279 279 271 269 269 269 262 261 250 222 192 177 166 177 179 182 191 195 194 192
Wind_Speed_850mb
33 21 19 26 28 38 53 51 54 55 61 62 68 71 78 85 84 85 84 83 83 79 85 94 97 95 93 93 89 86 83 80
33 27 17 16 12 16 33 39 45 52 54 57 58 61 68 73 83 82 81 78 78 69 66 71 81 87 93 95 89 88 87 85
38 32 32 24 11 4 12 23 32 45 53 57 57 58 61 67 71 75 76 75 75 71 64 58 67 74 77 83 92 92 93 92
34 38 50 37 26 17 5 9 18 25 39 50 53 56 54 58 60 68 76 76 73 69 69 70 74 77 76 72 80 86 90 94
44 53 45 34 33 32 24 13 6 7 17 28 51 51 51 50 52 56 64 72 72 71 68 70 67 74 82 82 83 83 89 96
50 48 35 35 40 34 28 21 15 7 2 10 24 50 48 51 49 51 52 55 60 66 68 68 70 71 75 78 79 81 85 90
48 43 44 45 36 29 27 25 21 18 12 5 7 18 32 43 46 46 47 50 53 56 64 69 70 70 70 72 78 83 87 88
43 41 40 37 31 28 25 24 25 24 21 15 7 4 11 20 29 38 43 50 52 55 58 63 67 67 67 69 72 80 86 89
39 37 37 34 33 29 27 25 24 24 23 21 18 12 3 9 16 23 30 37 43 49 53 57 60 59 60 63 65 68 79 86
36 36 34 36 35 31 30 28 25 26 23 22 20 18 14 10 2 10 18 26 33 39 43 47 50 51 54 56 58 62 68 76
40 38 37 37 34 32 33 30 32 30 27 21 16 14 13 13 10 7 2 7 14 20 28 33 37 40 44 47 51 58 62 67
38 42 41 37 35 35 33 35 33 28 25 20 16 13 9 8 7 6 5 3 3 7 13 16 21 28 37 37 41 52 60 65
40 39 38 37 36 35 35 33 29 26 24 22 19 16 11 7 6 5 5 4 4 7 11 15 19 28 32 32 35 42 52 57
37 37 38 39 39 37 36 31 29 26 24 21 19 17 14 11 7 5 6 9 11 14 16 22 28 29 28 30 34 38 42 43
37 39 38 36 36 35 32 29 27 24 22 21 18 15 14 12 8 5 5 7 10 14 17 23 31 38 36 31 31 35 37 37
41 44 45 42 36 33 30 29 25 23 20 19 18 17 14 10 9 6 5 5 8 13 16 20 25 32 40 42 38 34 33 35
40 45 47 44 38 37 34 30 27 24 21 17 15 14 12 11 8 6 4 5 7 9 11 14 18 24 30 36 43 38 32 32
41 45 49 44 35 34 34 31 26 26 24 21 18 14 11 9 10 8 4 3 3 8 8 11 13 17 21 28 37 34 38 37
45 47 45 39 34 32 32 32 29 24 25 26 22 19 13 9 8 7 7 5 5 7 9 11 17 21 22 26 39 44 36 36
48 48 45 38 32 31 30 31 28 26 22 26 27 25 21 16 14 11 10 9 10 9 7 14 22 22 22 28 30 29 30 32
Wind_Direction_850mb
27 31 100 130 157 180 195 201 206 212 221 223 232 234 230 223 227 233 235 237 236 232 231 232 236 237 233 234 236 237 236 236
37 36 52 102 138 182 191 201 209 216 219 222 224 231 229 228 227 232 236 241 239 237 235 236 236 238 237 236 236 238 236 235
46 51 62 49 30 169 217 226 227 227 229 225 225 226 231 231 228 230 232 236 242 239 237 235 236 234 234 237 236 237 237 236
39 55 56 51 41 41 346 265 248 235 231 229 222 226 229 233 231 230 232 236 239 238 236 234 233 232 231 236 238 238 239 238
39 51 57 54 55 51 42 23 340 269 238 226 215 220 220 221 225 230 232 234 237 239 237 234 236 236 237 236 238 237 237 236
42 46 52 58 59 54 51 47 46 48 172 207 220 219 224 224 224 223 227 232 236 237 237 237 237 237 240 239 238 237 237 236
42 41 41 47 51 55 51 51 54 57 65 87 200 212 220 228 228 228 226 225 228 232 234 236 238 240 241 242 241 239 237 235
37 39 45 45 45 48 52 49 51 53 58 63 79 176 212 220 227 230 230 230 230 231 232 235 238 240 241 242 242 241 238 234
36 42 47 48 46 45 48 52 51 49 48 50 55 56 109 205 218 227 232 233 233 234 236 238 240 241 242 242 243 242 240 236
40 43 46 47 43 43 48 47 45 47 44 41 40 40 48 56 49 229 231 232 234 236 237 238 239 237 238 238 238 237 236 233
42 45 46 43 42 41 42 41 42 36 32 27 23 21 21 30 34 35 10 244 240 238 236 235 234 232 231 232 230 229 227 221
46 44 42 40 36 35 34 36 30 25 23 20 17 11 2 357 352 7 15 359 268 233 223 222 225 218 217 225 224 225 217 209
45 42 37 33 31 32 33 29 22 20 15 12 13 9 4 349 320 290 265 240 227 210 208 197 189 199 208 216 221 219 212 206
36 33 28 25 23 20 19 14 16 13 8 12 10 5 1 350 329 283 249 235 227 215 201 191 186 192 195 198 201 203 204 208
24 20 16 11 4 2 3 3 358 357 1 3 3 3 359 354 340 315 254 232 231 230 225 213 203 201 202 208 205 205 204 203
14 7 0 355 350 339 336 338 347 346 345 351 353 351 351 346 339 336 317 262 241 235 230 230 223 213 211 209 213 215 205 199
2 356 351 347 345 333 329 322 319 328 329 328 333 338 341 337 323 321 303 269 251 244 231 229 220 210 207 208 209 212 212 198
351 348 346 345 343 336 334 330 316 303 309 310 306 314 316 323 335 319 312 231 229 223 218 214 196 184 185 195 194 189 198 197
344 344 342 343 340 339 336 334 327 310 290 291 291 286 287 301 293 288 303 290 201 188 184 172 167 165 171 154 167 185 200 208
339 342 337 336 332 329 326 326 324 320 301 277 279 279 271 269 269 269 262 261 250 222 192 177 166 177 179 182 191 195 194 192